This is the latest recevied weather packets stored in our database for station/object DW9280. If no packets are shown the sender has not sent any weather packets the latest 10 day(s).
| Time | Temp. | Humidity | Pressure | Rain* | Wind** | Luminosity | Snow |
|---|---|---|---|---|---|---|---|
| 1787493064 | 19.44° C | 72% | 1024.8 hPa | 0 mm | - | 230 W/m² | - |
| 1787492762 | 19.44° C | 72% | 1024.7 hPa | 0 mm | - | 860 W/m² | - |
| 1787492464 | 19.44° C | 70% | 1024.6 hPa | 0 mm | - | 250 W/m² | - |
| 1787492246 | 20.56° C | 65% | 1024.6 hPa | 0 mm | - | 302 W/m² | - |
| 1787491949 | 20.56° C | 59% | 1024.6 hPa | 0 mm | - | 241 W/m² | - |
| 1787491555 | 21.11° C | 60% | 1024.6 hPa | 0 mm | - | 424 W/m² | - |
| 1787491252 | 21.11° C | 62% | 1024.5 hPa | 0 mm | - | 772 W/m² | - |
| 1787491046 | 20.56° C | 61% | 1024.6 hPa | 0 mm | - | 773 W/m² | - |
| 1787490649 | 21.11° C | 61% | 1024.5 hPa | 0 mm | - | 817 W/m² | - |
| 1787490346 | 21.11° C | 61% | 1024.5 hPa | 0 mm | - | 891 W/m² | - |
| 1787490144 | 21.11° C | 64% | 1024.6 hPa | 0 mm | - | 809 W/m² | - |
| 1787489731 | 20.56° C | 63% | 1024.5 hPa | 0 mm | - | 745 W/m² | - |
| 1787489431 | 20.56° C | 63% | 1024.6 hPa | 0 mm | - | 721 W/m² | - |
| 1787489239 | 21.11° C | 63% | 1024.5 hPa | 0 mm | - | 659 W/m² | - |
| 1787488828 | 20.56° C | 62% | 1024.6 hPa | 0 mm | - | 742 W/m² | - |
| 1787488527 | 20.56° C | 61% | 1024.6 hPa | 0 mm | - | 747 W/m² | - |
| 1787488218 | 20.56° C | 64% | 1024.6 hPa | 0 mm | - | 758 W/m² | - |
| 1787487917 | 20.56° C | 60% | 1024.6 hPa | 0 mm | - | 359 W/m² | - |
| 1787487614 | 20.56° C | 61% | 1024.5 hPa | 0 mm | - | 666 W/m² | - |
| 1787487312 | 20.56° C | 61% | 1024.5 hPa | 0 mm | - | 793 W/m² | - |
| 1787487012 | 20.56° C | 61% | 1024.6 hPa | 0 mm | - | 788 W/m² | - |
| 1787486709 | 21.11° C | 60% | 1024.5 hPa | 0 mm | - | 789 W/m² | - |
| 1787486409 | 20.56° C | 59% | 1024.6 hPa | 0 mm | - | 809 W/m² | - |
| 1787486110 | 20.56° C | 61% | 1024.6 hPa | 0 mm | - | 777 W/m² | - |
| 1787485807 | 20.56° C | 61% | 1024.6 hPa | 0 mm | - | 756 W/m² | - |
* Rain latest hour (hover to see other rain measurements)
** Current wind speed in m/s (hover to see current wind gust speed)